Location: ??? ???
(33.4974°N, 35.4618°E)
Time: 01:17:25
(UTC+00:00)

GPS 2-04 Rocket1 - Pass Details

Date: 29 October 2020
Orbit: 418 x 546 km, 35.6° (Epoch: 25 November)

Event Time Altitude Azimuth Distance (km) Brightness Sun altitude
Rises 15:40:04 0° 252° (WSW) 2,595 8.2 -11.3°
Reaches altitude 10° 15:42:15 10° 251° (WSW) 1,732 6.8 -11.7°
Maximum altitude 15:46:15 81° 166° (SSE) 536 2.7 -12.5°
Enters shadow 15:48:55 21° 78° (ENE) 1,229 3.9 -13.1°
